Location: Dumpton Point
(51.3500°N, 1.4433°E)
Time: 22:38:32
(UTC+00:00)

Resurs 01 Rocket - Pass Details

Date: 09 April 2020
Orbit: 635 x 643 km, 98.0° (Epoch: 26 May)

Event Time Altitude Azimuth Distance (km) Brightness Sun altitude
Exits shadow 20:55:16 14° 198° (SSW) 1,789 3.7 -19.2°
Maximum altitude 20:58:44 38° 263° (W) 983 2.9 -19.6°
Drops below altitude 10° 21:02:53 10° 332° (NNW) 2,039 5.3 -20.0°
Sets 21:05:15 0° 340° (NNW) 2,955 6.2 -20.3°
